Regional Weather Roundup
Issued by NWS

Home | Current Version | Previous Version | Text Only | Print | Product List | Glossary On
Versions: 1 2 3 4 5 6 7 8 9 10 11 12 13 14 15 16 17 18 19 20 21 22 23 24 25 26 27 28 29 30 31 32 33 34 35 36 37 38 39 40 41 42 43 44 45 46 47 48 49 50
000
ASUS46 KSTO 200109
RWRCA

NORTHERN AND CENTRAL CA REGIONAL WEATHER ROUNDUP
NATIONAL WEATHER SERVICE SACRAMENTO CA
600 PM PDT FRI SEP 19 2014

NOTE: FAIR INDICATES FEW OR NO CLOUDS BELOW 12,000 FEET WITH NO
SIGNIFICANT WEATHER AND/OR OBSTRUCTIONS TO VISIBILITY.

CAZ001-003-200200-
NORTHWEST AREA

CITY           SKY/WX    TMP DP  RH WIND       PRES   REMARKS
CRESCENT CITY  FAIR      65  57  75 N9G16     29.84F
ARCATA         NOT AVBL
SHELTER COVE   NOT AVBL
UKIAH          SUNNY     85  51  31 W7        29.82R
$$

CAZ006-505>513-200200-
BAY AREA

CITY           SKY/WX    TMP DP  RH WIND       PRES   REMARKS
SANTA ROSA     SUNNY     70  60  70 S12       29.83R
SAN RAFAEL     N/A       82  MM  MM MISG
NAPA           SUNNY     73  63  70 SW10      29.83S
CONCORD        SUNNY     79  55  43 W9        29.83S
OAKLAND CITY   N/A       72  MM  MM MISG
OAKLAND        MOSUNNY   69  61  75 W12       29.86S
SAN FRAN CITY  N/A       65  MM  85 MISG
SAN FRAN ARPT  MOSUNNY   69  63  81 W13       29.87R
LIVERMORE      SUNNY     77  58  51 W15       29.83S
HAYWARD        SUNNY     72  65  78 NW14      29.86R
REDWOOD CITY   N/A       MM  MM  MM MISG
MOFFETT ARPT   SUNNY     70  62  76 N15G21    29.86R
SAN JOSE ARPT  MOSUNNY   72  62  71 W14       29.85R
$$
CAZ034-037-514>518-200200-
CENTRAL COAST

CITY           SKY/WX    TMP DP  RH WIND       PRES   REMARKS
WATSONVILLE    SUNNY     69  61  75 S7        29.88S
SALINAS        CLOUDY    66  60  81 W10       29.88R
MONTEREY       CLOUDY    66  60  81 W7        29.89S
PT PIEDRAS BLS NOT AVBL
SAN LUIS OBISP SUNNY     72  58  61 NW12      29.87R
SANTA MARIA    MOSUNNY   72  59  63 NW13      29.89R
$$
CAZ015-016-200200-
NORTHERN SACRAMENTO VALLEY

CITY           SKY/WX    TMP DP  RH WIND       PRES   REMARKS
REDDING        SUNNY     99  39  12 NW6       29.72S HX  94
RED BLUFF      SUNNY    100  38  11 N3        29.72F HX  95
OROVILLE       SUNNY     84  53  34 S15       29.78R
$$
CAZ016>018-200200-
SOUTHERN SACRAMENTO VALLEY

CITY           SKY/WX    TMP DP  RH WIND       PRES   REMARKS
AUBURN         MOSUNNY   77  52  41 S5        29.86S
BEALE AFB      MOSUNNY   84  54  34 S12       29.77R
LINCOLN        FAIR      84  50  30 S8        29.77S
MARYSVILLE     SUNNY     85  51  31 SE8       29.77S
SAC INTL ARPT  MOSUNNY   84  59  42 S12       29.76S
MATHER AIRPORT SUNNY     82  57  42 SW12      29.79S
DOWNTOWN SAC   N/A       83  MM  MM MISG
SAC EXEC ARPT  MOSUNNY   82  60  47 SW7G17    29.78S
VACAVILLE      SUNNY     84  56  38 SW13      29.79S
TRAVIS AFB     SUNNY     80  60  51 SW20G26   29.78S
$$
CAZ019>021-200200-
SAN JOAQUIN VALLEY

CITY           SKY/WX    TMP DP  RH WIND       PRES   REMARKS
STOCKTON       SUNNY     84  59  42 NW13      29.80R
MODESTO        SUNNY     85  52  32 NW8       29.79S
MERCED         SUNNY     88  54  31 NW9       29.79S
LEMOORE        MOSUNNY   87  55  33 N9        29.79S
FRESNO         MOSUNNY   88  54  31 NW10      29.80S
HANFORD        SUNNY     86  56  35 NW10      29.79S
PORTERVILLE    PTSUNNY   86  57  37 NW10      29.81S
BAKERSFIELD    SUNNY     86  55  34 NW9       29.79S
$$
CAZ011-012-071-200200-
NORTHERN MOUNTAINS

CITY           SKY/WX    TMP DP  RH WIND       PRES   REMARKS
YREKA          SUNNY     88  44  21 N13       29.94S
MOUNT SHASTA   SUNNY     79  48  33 VRB5      29.99S
ALTURAS        SUNNY     84  35  17 N8        30.03S
$$
CAZ011-012-071-200200-
SIERRA NEVADA MTNS

CITY           SKY/WX    TMP DP  RH WIND       PRES   REMARKS
BLUE CANYON    MOSUNNY   68  51  54 W3        30.07R HAZE
TRUCKEE        MOSUNNY   73  37  27 E8        30.09S
TAHOE VLY ARPT SUNNY     73  34  23 N3        30.10S
MAMMOTH LAKES  FAIR      70  28  21 E10       30.14S
$$




USA.gov is the U.S. government's official web portal to all federal, state and local government web resources and services.